Location: Buch am Rannenberg
(48.6989°N, 10.6399°E)
Time: 20:34:31
(UTC+00:00)

STARLINK-1348 - Pass Details

Date: 07 June 2020
Orbit: 378 x 381 km, 53.0° (Epoch: 09 July)

Event Time Altitude Azimuth Distance (km) Brightness Sun altitude
Rises 01:28:18 0° 294° (WNW) 2,262 6.7 -12.7°
Reaches altitude 10° 01:30:23 10° 298° (WNW) 1,407 5.7 -12.5°
Maximum altitude 01:33:29 59° 19° (NNE) 449 3.5 -12.2°
Drops below altitude 10° 01:36:35 10° 100° (E) 1,403 6.0 -12.0°
Sets 01:38:39 0° 105° (ESE) 2,255 7.0 -11.8°
